Location: Bogis-Bossey
(46.3500°N, 6.1667°E)
Time: 19:13:22
(UTC+00:00)

Cosmos 921 Rocket - Pass Details

Date: 17 August 2022
Orbit: 571 x 630 km, 75.8° (Epoch: 01 October)

Event Time Altitude Azimuth Distance (km) Brightness Sun altitude
Rises 19:27:39 0° 207° (SSW) 2,791 6.4 -8.1°
Reaches altitude 10° 19:29:54 10° 211° (SSW) 1,889 5.6 -8.4°
Maximum altitude 19:34:02 59° 291° (WNW) 672 3.6 -9.0°
Drops below altitude 10° 19:38:10 10° 12° (NNE) 1,887 5.8 -9.6°
Sets 19:40:24 0° 16° (NNE) 2,788 6.6 -10.0°
